Zurück zum Katalog

DELTA 1 DEB

AktivSSO
NORAD 18645·DEBRIS·🇺🇸 United States

Gestartet Nov 6, 1973 von Vandenberg Space Force Base

Loading…

Nächste Überflüge (nächste 24 Stunden)

TLE

AktuellSource: Space-Track

Epoche: Sep 14, 2026, 08:28 UTC

1 18645U 73086GX  26257.35331622 -.00000025  00000-0  16353-3 0  9994
2 18645 102.3193  29.5999 0119410 276.5312 107.2853 12.37427376874995

Verfolge DELTA 1 DEB in Echtzeit mit AllMySat

Download on the App Store